AirNav   Air Wisconsin Up To $57,000 Bonus
 
 1039 users online  

TA78 Putty Ranch Airport
Hico, Texas, USA

GOING TO HICO?


FAA INFORMATION EFFECTIVE 17 JUNE 2021

Location

FAA Identifier: TA78
Lat/Long: 31-58-20.5310N 098-03-41.1260W
31-58.342183N 098-03.685433W
31.9723697,-98.0614239
(estimated)
Elevation: 1143 ft. / 348 m (estimated)
Variation: 07E (1985)
From city: 2 miles SW of HICO, TX
Time zone: UTC -5 (UTC -6 during Standard Time)
Zip code: 76457

Airport Operations

Airport use: Private use. Permission required prior to landing
Activation date: 07/1979
Control tower: no
ARTCC: FORT WORTH CENTER
FSS: FORT WORTH FLIGHT SERVICE STATION
Attendance: UNATNDD
Wind indicator: no
Segmented circle: no

Airport Communications

WX AWOS-3 at SEP (16 nm N): 118.075 (254-965-8672)
WX AWOS-3 at MNZ (19 nm S): 118.525 (254-386-8211)

Airport Services

Fuel available: 100LL
100LL:FOR EMERGENCY USE ONLY.

Runway Information

Runway 17/35

Dimensions: 3500 x 60 ft. / 1067 x 18 m
Surface: turf
RUNWAY 17  RUNWAY 35
Traffic pattern: leftleft

Airport Ownership and Management from official FAA records

Ownership: Privately-owned
Owner: JOHNNY B. PUTTY
RT 2 BOX 54
HICO, TX 76457
Phone 817-796-4165
Manager: JOHNNY B. PUTTY
RT 2 BOX 54
HICO, TX 76457
Phone 817-796-4165
JAMES PUTTY 1676 CR 133 HICO TX 76457 817-637-4783

Airport Operational Statistics

Aircraft based on the field: 1
Single engine airplanes: 1
    

Additional Remarks

FOR CD CTC FORT WORTH ARTCC AT 817-858-7584.

Instrument Procedures

There are no published instrument procedures at TA78.

Some nearby airports with instrument procedures:

KSEP - Stephenville Clark Regional Airport (16 nm N)
KMNZ - Hamilton Municipal Airport (19 nm S)
KMKN - Comanche County-City Airport (28 nm W)
KGDJ - Granbury Regional Airport (31 nm NE)
KCPT - Cleburne Regional Airport (39 nm NE)
 
Loc | Ops | Rwys | IFR | FBO | Links
Com | Nav | Svcs | Stats | Notes

City of Fort Worth
 
Area around TA78 (Putty Ranch Airport)
 
Road maps at: MapQuest Bing Google
 
Aerial photo
No photo
 
Sectional chart

 
Airport distance calculator
Flying to Putty Ranch Airport? Find the distance to fly.

From to TA78

Sunrise and sunset
Times for 17-Jun-2021
 Local
(UTC-5)
 Zulu
(UTC)
Morning civil twilight05:5910:59
Sunrise06:2711:27
Sunset20:3901:39
Evening civil twilight21:0702:07

Current date and time
Zulu (UTC)  18-Jun-2021 02:52:02
Local (UTC-5)  17-Jun-2021 21:52:02
 
METAR
KSEP 
16nm N 
180235Z AUTO 12004KT 10SM SCT110 28/18 A3002 RMK AO2 T02800178
KMNZ 
19nm S 
180235Z AUTO 13006KT 10SM CLR 29/18 A3001 RMK AO2 T02860183
KMKN 
28nm W 
180235Z AUTO 13003KT 10SM CLR 27/19 A3001 RMK AO2 T02700188
KGDJ 
31nm NE 
AWOS-3 118.925 817-573-7514
180235Z AUTO 15004KT 10SM CLR 31/19 A2998 RMK AO2 T03100190
TAF
KACT 
47nm SE 
172106Z 1721/1818 20006KT P6SM FEW300 FM180700 15005KT P6SM SCT090 SCT300
NOTAMs
Click for the latest NOTAMs
NOTAMs are issued by the DoD/FAA and will open in a separate window not controlled by AirNav.

 

 
 

Would you like to see your business listed on this page?

 If your business provides an interesting product or service to pilots, flight crews, aircraft, or users of the Putty Ranch Airport, you should consider listing it here.  To start the listing process, click on the button below
 
Add a business
 

Other Pages about Putty Ranch Airport

Update a link
 
Copyright © AirNav, LLC. All rights reserved. Privacy Policy  Contact